Location: Newark
(53.5596°N, 1.2370°W)
Time: 19:30:29
(UTC+00:00)

ISS - Pass Details

Date: 27 October 2019
Orbit: 412 x 421 km, 51.6° (Epoch: 13 November)

Event Time Altitude Azimuth Distance (km) Brightness Sun altitude
Exits shadow 05:29:21 - 211° (SSW) 1,962 -0.6 -13.1°
Reaches altitude 10° 05:30:40 10° 201° (SSW) 1,503 -1.1 -12.9°
Maximum altitude 05:33:19 21° 149° (SSE) 991 -1.4 -12.5°
Drops below altitude 10° 05:35:58 10° 97° (E) 1,507 0.6 -12.1°
Sets 05:38:22 0° 81° (E) 2,373 1.8 -11.7°
